| time (UTC) | temp C | wind direction | speed KPH | gust KPH | rain 1hr cm | rain 24hr cm | rain mn cm | humidity % | barometer mb |
| 20260504033043 | 7 | 0 | 0.0 | 1.6 | 0.00 | 0.00 | 0.00 | 66 | 1015.2 |
| 20260504031601 | 7 | 177 | 0.0 | 3.2 | 0.00 | 0.00 | 0.00 | 67 | 1015.1 |
| 20260504030043 | 7 | 0 | 0.0 | 0.0 | 0.00 | 0.00 | 0.00 | 64 | 1015.3 |
| 20260504024544 | 7 | 0 | 0.0 | 1.6 | 0.00 | 0.00 | 0.00 | 64 | 1015.3 |
| 20260504023045 | 7 | 0 | 0.0 | 0.0 | 0.00 | 0.00 | 0.00 | 65 | 1015.4 |
| 20260504021543 | 7 | 0 | 0.0 | 0.0 | 0.00 | 0.00 | 0.00 | 61 | 1015.3 |
| 20260504020042 | 8 | 192 | 0.0 | 1.6 | 0.00 | 0.00 | 0.00 | 58 | 1015.4 |
| 20260504014543 | 9 | 0 | 0.0 | 0.0 | 0.00 | 0.00 | 0.00 | 59 | 1015.4 |
| 20260504013037 | 9 | 0 | 0.0 | 1.6 | 0.00 | 0.00 | 0.00 | 54 | 1015.1 |
| 20260504011546 | 9 | 0 | 0.0 | 1.6 | 0.00 | 0.00 | 0.00 | 53 | 1015.1 |
| 20260504010046 | 10 | 0 | 0.0 | 0.0 | 0.00 | 0.00 | 0.00 | 49 | 1015.1 |
| 20260504004543 | 10 | 0 | 0.0 | 1.6 | 0.00 | 0.00 | 0.00 | 47 | 1014.7 |
| 20260504003046 | 10 | 0 | 0.0 | 4.8 | 0.00 | 0.00 | 0.00 | 42 | 1014.6 |
| 20260504001547 | 10 | 262 | 1.6 | 3.2 | 0.00 | 0.00 | 0.00 | 43 | 1014.7 |
| 20260504000045 | 10 | 274 | 1.6 | 4.8 | 0.00 | 0.00 | 0.00 | 43 | 1014.7 |
| 20260503234544 | 10 | 230 | 3.2 | 4.8 | 0.00 | 0.00 | 0.00 | 42 | 1014.9 |
| 20260503233039 | 11 | 227 | 4.8 | 12.9 | 0.00 | 0.00 | 0.00 | 39 | 1015.0 |
| 20260503231548 | 11 | 246 | 6.4 | 12.9 | 0.00 | 0.00 | 0.00 | 38 | 1015.1 |
| 20260503230041 | 11 | 228 | 8.0 | 16.1 | 0.00 | 0.00 | 0.00 | 38 | 1015.1 |
| 20260503224549 | 11 | 237 | 8.0 | 16.1 | 0.00 | 0.00 | 0.00 | 38 | 1015.2 |
| 20260503223044 | 11 | 234 | 8.0 | 16.1 | 0.00 | 0.00 | 0.00 | 38 | 1015.2 |
| 20260503221544 | 12 | 301 | 8.0 | 16.1 | 0.00 | 0.00 | 0.00 | 37 | 1015.3 |
| 20260503220043 | 12 | 241 | 8.0 | 20.9 | 0.00 | 0.00 | 0.00 | 39 | 1015.0 |
| 20260503214548 | 12 | 189 | 9.7 | 22.5 | 0.00 | 0.00 | 0.00 | 40 | 1014.9 |
| 20260503213057 | 12 | 250 | 11.3 | 19.3 | 0.00 | 0.00 | 0.00 | 39 | 1015.1 |
| 20260503211613 | 12 | 263 | 11.3 | 20.9 | 0.00 | 0.00 | 0.00 | 41 | 1015.1 |
| 20260503210044 | 12 | 267 | 9.7 | 19.3 | 0.00 | 0.00 | 0.00 | 38 | 1015.3 |
| 20260503204558 | 12 | 276 | 11.3 | 20.9 | 0.00 | 0.00 | 0.00 | 37 | 1015.3 |
| 20260503203041 | 12 | 250 | 8.0 | 22.5 | 0.00 | 0.00 | 0.00 | 41 | 1015.5 |
| 20260503201539 | 12 | 255 | 9.7 | 17.7 | 0.00 | 0.00 | 0.00 | 40 | 1015.7 |
| 20260503200047 | 11 | 258 | 11.3 | 19.3 | 0.00 | 0.00 | 0.00 | 40 | 1016.0 |
| 20260503194541 | 11 | 265 | 11.3 | 24.1 | 0.00 | 0.00 | 0.00 | 40 | 1016.1 |
| 20260503193041 | 11 | 316 | 9.7 | 20.9 | 0.00 | 0.00 | 0.00 | 37 | 1016.4 |
| 20260503191554 | 11 | 320 | 9.7 | 19.3 | 0.00 | 0.00 | 0.00 | 38 | 1016.6 |
| 20260503190039 | 11 | 290 | 8.0 | 19.3 | 0.00 | 0.00 | 0.00 | 40 | 1016.9 |
| 20260503184541 | 11 | 263 | 9.7 | 30.6 | 0.00 | 0.00 | 0.00 | 40 | 1017.0 |
| 20260503183045 | 10 | 278 | 8.0 | 16.1 | 0.00 | 0.00 | 0.00 | 39 | 1017.1 |
| 20260503181538 | 10 | 351 | 6.4 | 22.5 | 0.00 | 0.00 | 0.00 | 37 | 1017.2 |
| 20260503180041 | 10 | 286 | 6.4 | 16.1 | 0.00 | 0.00 | 0.00 | 39 | 1017.2 |
| 20260503174600 | 9 | 240 | 3.2 | 16.1 | 0.00 | 0.00 | 0.00 | 40 | 1017.6 |
| 20260503173042 | 9 | 244 | 9.7 | 20.9 | 0.00 | 0.00 | 0.00 | 44 | 1017.8 |
| 20260503171541 | 8 | 277 | 12.9 | 22.5 | 0.00 | 0.00 | 0.00 | 41 | 1017.9 |
| 20260503081554 | -1 | 0 | 0.0 | 0.0 | 0.00 | 0.00 | 0.00 | 83 | 1015.9 |
| 20260503071600 | 1 | 0 | 0.0 | 0.0 | 0.00 | 0.00 | 0.00 | 75 | 1015.4 |
| 20260503054555 | 2 | 312 | 8.0 | 14.5 | 0.00 | 0.00 | 0.00 | 71 | 1015.4 |
| 20260503053043 | 2 | 279 | 4.8 | 12.9 | 0.00 | 0.00 | 0.00 | 72 | 1015.5 |
| 20260503051548 | 2 | 351 | 4.8 | 8.0 | 0.00 | 0.00 | 0.00 | 72 | 1015.4 |
| 20260503050043 | 3 | 333 | 8.0 | 16.1 | 0.00 | 0.00 | 0.00 | 71 | 1015.3 |
| 20260503044540 | 3 | 336 | 3.2 | 14.5 | 0.00 | 0.00 | 0.00 | 71 | 1015.2 |
| 20260503043044 | 3 | 355 | 4.8 | 11.3 | 0.00 | 0.00 | 0.00 | 70 | 1015.1 |
| 20260503041543 | 3 | 333 | 1.6 | 8.0 | 0.00 | 0.00 | 0.00 | 69 | 1015.1 |
| 20260503040045 | 3 | 300 | 3.2 | 9.7 | 0.00 | 0.00 | 0.00 | 68 | 1015.1 |
| 20260503034543 | 3 | 336 | 3.2 | 6.4 | 0.00 | 0.00 | 0.00 | 67 | 1015.1 |